千帆星座-39 (QIANFAN-39)

导读

QIANFAN-39 是中国“北斗”卫星导航系统的一部分,主要用于提供高精度定位、导航和授时服务。该卫星由中国自主研发,具备先进的信号传输和抗干扰能力,广泛应用于交通、农业、通信和应急救援等领域。QIANFAN-39 的成功发射进一步提升了北斗系统的全球覆盖能力和稳定性,增强了中国在卫星导航领域的自主可控能力,对国家的经济发展和国防安全具有重要意义。

Basic Information
目录编号:
62240
目录名称:
QIANFAN-39
国际标识:
2024-232D
轨道中心:
EARTH
卫星名称:
千帆星座-39
卫星全名:
千帆星座-39 (QIANFAN-39)
卫星状态:
在轨 (已飞行555 天)
发射日期:
2024-12-05 UTC
国别 :
中国 (CN)
星等 :
--
Orbit Information
数据来源 国际轨道数据 AOE轨道数据
星历时间 2026-06-13T04:50:00+0800
5小时前
查看轨道信息
2026-06-11T00:00:00+0800
2天前
查看轨道信息
半长轴 7184.869km 7184.869km
偏心率 0.0015225 0.0015062
轨道倾角 89.006° 89.007°
近地点辐角 194.128° 201.733°
升交点赤经 16.559° 16.810°
平近点角 165.949° 28.286°
近地点 795.793km 795.91km
远地点 817.671km 817.554km
周期 101.015分钟 101.015分钟
每日圈数 14.255241 14.255239
Detailed Information
卫星平台:
39
覆盖范围:
全球
运营商:
上海垣信卫星科技有限公司
运营商所在国:
中国
使用方式:
暂无
Satellite Introduction
千帆星座,也被称为“G60星链”计划,是中国版“星链”的重要组成部分,旨在打造一个由1.4万多颗低轨宽频多媒体卫星构成的庞大星座。千帆星座计划由上海垣信卫星科技有限公司负责实施,于2023年启动建设。该项目是我国第二个低轨卫星大星座,旨在通过构建庞大的卫星网络,为全球用户提供高质量的通信和宽带互联网服务。
2D Orbit Map
3D Orbit Map
Orbit Altitude Analysis Chart
Orbit Inclination Analysis Chart
Orbit Comprehensive Analysis Chart
View Comprehensive Chart